User: anonymous   Login
Location: Unspecified
(0.0000°N, 0.0000°E)
Time: 13:34:46
(UTC+00:00)
Language:

TIGRISAT - Orbit

View from above orbital plane
View from above orbital plane
View from above satellite
View from above satellite

Ground track
Ground track

The orbit data is extracted from the following two-line orbital elements,

1 40043U 14033AK  17146.58822354 +.00000197 +00000-0 +36879-4 0  9992
2 40043 097.8603 031.8206 0060483 005.2091 354.9733 14.73967725157350
Epoch (UTC): 26 May 2017 14:07:02
Eccentricity: 0.0060483
inclination: 97.8603°
perigee height: 606 km
apogee height: 691 km
right ascension of ascending node: 31.8206°
argument of perigee: 5.2091°
revolutions per day: 14.73967725
mean anomaly at epoch: 354.9733°
orbit number at epoch: 15735

The dashed part of the orbit path shows where the satellite is in the earth's shadow,  

DLR